User: anonymous
Location: Prairie State College
(41.5244°N, 87.6382°W)
Time: 00:32:06
(UTC-05:00)
Language:

ARGOS Delta rocket - Orbit

View from above orbital plane
View from above orbital plane
View from above satellite
View from above satellite

Ground track
Ground track

The orbit data is extracted from the following two-line orbital elements,

1 25637U 99008D   14107.98869293  .00000395  00000-0  10622-3 0  4543
2 25637 096.4605 264.1401 0143863 358.6028 108.7820 14.45724215798498
Epoch (UTC): 17 April 2014 23:43:43
Eccentricity: 0.0143863
inclination: 96.4605°
perigee height: 637 km
apogee height: 842 km
right ascension of ascending node: 264.1401°
argument of perigee: 358.6028°
revolutions per day: 14.45724215
mean anomaly at epoch: 108.7820°
orbit number at epoch: 79849

The dashed part of the orbit path shows where the satellite is in the earth's shadow,  

DLR